Orbital Elements at Epoch 2459000.5 (2020-May-31.0) TDB
Reference: JPL 13 (heliocentric ecliptic J2000)
Element | Value | Uncertainty (1-sigma) | Units |
e | .2806631066292284 | 6.6142e-08 | |
a | 2.57360549039644 | 1.6099e-08 | au |
q | 1.851289378223736 | 1.795e-07 | au |
i | 4.119158229754616 | 3.7258e-06 | deg |
node | 166.8225980900754 | 6.6944e-05 | deg |
peri | 161.0360659912122 | 6.772e-05 | deg |
M | 31.07923918134262 | 1.5082e-05 | deg |
tp | 2458870.309508537574 (2020-Jan-21.80950854) | 6.2123e-05 | TDB |
period | 1508.034886343338 4.13 | 1.415e-05 3.874e-08 | d yr |
n | .2387212678301647 | 2.2399e-09 | deg/d |
Q | 3.295921602569143 | 2.0617e-08 | au |
|
| | Orbit Determination Parameters
Additional Information
|